Theta_e
353 355 359 361 360 359 361 358 355 360 362 357 357 356 352 355 349 346 343 344 343 351 354 349 359 365 360 359 358 356 357 351 350 347 346 344 345 342 342 342 343 343 343 344 344 343 343 343 344 344 344 344 344 343 342 342 341 340 339 338 337 337 336 334 333 334 335 334 334 334 334 336 337 337
361 358 358 360 358 360 359 357 357 361 365 360 357 356 358 359 350 348 342 343 349 349 354 355 357 360 360 358 353 355 349 346 342 341 342 341 341 338 338 338 338 339 340 341 343 342 341 341 342 341 341 341 340 340 340 339 340 340 338 337 337 335 334 333 332 333 333 333 333 332 332 333 333 334
361 362 359 360 358 360 358 358 356 359 362 360 359 357 359 358 355 353 349 344 351 354 351 354 354 356 354 351 352 350 344 341 340 339 339 338 338 336 336 335 335 335 335 337 339 340 340 339 339 339 338 338 338 338 338 337 337 337 337 336 336 334 333 332 332 332 332 332 332 332 332 332 333 333
364 362 359 360 360 360 360 359 357 359 362 362 359 359 360 360 360 358 355 354 350 355 354 354 354 354 352 351 347 346 343 342 340 338 335 335 335 332 334 333 333 333 333 333 335 336 337 337 337 337 337 337 337 337 336 336 335 335 335 334 333 332 331 331 332 332 332 332 332 332 332 332 332 332
362 363 361 361 361 364 362 360 359 358 359 361 359 362 359 357 362 361 360 354 351 355 357 354 353 351 351 347 348 343 342 344 343 341 339 337 334 333 333 334 332 331 331 331 332 333 334 335 335 335 335 335 334 333 333 332 331 331 330 330 328 328 329 331 331 331 332 332 332 333 333 334 334 334
365 362 365 365 362 365 364 361 360 359 357 356 355 360 359 358 360 365 359 357 353 351 354 351 351 348 349 343 341 338 338 341 342 340 338 336 335 334 334 333 333 331 331 331 330 330 330 331 331 332 332 331 330 329 328 326 325 325 325 325 324 325 327 328 329 329 330 331 332 332 333 333 333 333
368 364 364 364 365 361 361 361 362 361 359 358 358 359 359 359 361 362 363 359 353 352 348 348 346 346 346 344 343 344 342 342 340 340 339 337 335 334 333 331 332 331 331 330 329 328 328 327 327 326 325 326 326 325 324 321 321 322 322 322 322 323 324 324 326 327 327 329 330 331 331 331 331 332
364 366 365 363 362 363 361 362 362 362 362 360 360 359 362 363 363 363 363 363 358 354 346 347 344 344 344 344 346 345 342 340 339 338 340 337 333 331 330 329 330 330 330 329 328 327 326 326 325 324 323 323 322 321 321 320 320 320 320 321 321 321 322 322 322 323 323 323 325 326 328 328 329 329
364 365 364 363 363 364 361 363 362 362 362 361 359 359 361 362 363 363 362 362 359 352 346 342 343 343 343 344 344 343 340 338 336 337 336 334 331 329 328 327 328 331 330 329 328 326 325 324 323 323 323 322 322 321 320 320 319 319 319 319 319 320 320 320 320 320 320 319 320 321 323 324 325 326
363 363 363 364 364 363 361 360 362 364 363 362 358 359 360 360 361 361 361 360 358 353 345 340 337 339 336 340 340 339 335 333 332 330 333 333 330 329 328 328 329 331 329 328 325 325 324 324 324 322 322 322 322 321 321 320 319 318 318 318 318 318 319 319 319 319 318 318 318 318 320 322 323 324
362 364 365 365 366 366 364 361 361 363 363 361 359 359 359 358 359 358 358 357 354 348 342 340 340 338 337 335 332 336 337 336 333 329 327 327 330 332 330 327 326 325 323 326 329 326 324 323 322 324 323 322 321 321 321 320 319 319 318 317 318 318 318 318 318 318 317 317 316 316 316 318 321 322
363 366 366 365 366 366 364 363 361 363 363 363 359 358 357 355 355 356 354 351 349 344 341 338 336 335 333 334 336 337 338 334 333 332 331 330 331 331 332 330 326 325 325 322 321 324 324 322 322 322 322 322 323 323 321 320 320 318 318 318 319 318 317 317 317 317 317 317 316 315 314 315 316 319
366 367 366 366 366 367 364 363 363 361 362 363 359 357 355 354 353 355 353 350 347 343 339 337 336 333 332 333 332 331 333 333 332 332 336 334 333 331 327 325 326 325 322 323 323 322 325 325 324 324 322 320 320 318 318 319 319 318 318 318 318 318 317 317 316 316 316 316 317 316 315 314 314 315
367 366 364 364 362 362 362 360 359 357 354 355 359 358 355 354 353 352 350 348 345 343 339 336 336 334 333 330 330 330 333 336 331 328 330 328 325 324 322 321 322 323 321 321 321 322 324 323 322 321 319 318 318 317 317 317 317 317 318 318 318 318 317 317 316 316 315 315 316 316 316 315 314 313
363 363 363 364 362 362 359 360 358 354 352 351 350 351 352 350 354 350 348 346 343 340 338 337 337 336 335 331 330 330 330 329 328 328 328 322 318 315 313 311 317 325 324 323 321 321 323 324 319 318 316 317 317 316 315 318 317 317 317 317 317 317 317 316 316 316 315 315 315 315 315 316 314 313
357 358 359 360 362 360 360 359 357 352 350 349 349 349 349 349 346 347 352 347 343 342 341 338 338 337 333 330 331 327 325 326 327 327 323 320 318 317 316 314 315 321 327 322 321 318 322 322 318 318 317 316 314 314 317 317 317 316 316 316 316 316 316 316 316 316 315 315 315 314 315 316 316 313
359 359 358 358 359 360 359 355 354 353 350 343 341 340 340 339 339 334 335 342 347 345 344 341 338 337 336 332 328 325 325 330 329 328 325 325 324 322 319 317 318 322 328 323 320 317 319 322 320 317 318 317 317 314 317 316 316 316 316 316 315 315 315 315 315 316 315 314 314 313 313 314 315 314
359 359 359 358 357 359 358 356 353 349 348 347 345 347 348 345 339 336 335 337 339 344 344 344 339 340 337 331 329 330 332 330 327 324 321 322 320 320 318 321 322 323 325 321 318 317 317 321 319 319 319 318 315 314 316 316 315 315 316 315 315 314 314 314 314 314 314 313 313 312 312 312 313 314
360 360 359 358 357 357 354 355 351 347 345 345 344 344 343 342 340 339 340 342 343 342 343 342 341 339 336 334 333 334 333 330 327 324 322 321 319 318 319 319 319 319 324 324 322 316 316 319 319 318 319 318 318 316 316 316 316 315 315 315 315 314 314 314 313 313 313 313 313 312 311 311 311 312
359 360 358 356 356 356 353 352 345 347 348 345 342 339 336 334 331 328 325 323 329 337 341 342 341 339 336 332 333 332 330 330 328 325 321 319 318 315 313 311 312 315 319 321 321 316 317 321 317 316 318 319 318 319 316 317 318 317 316 315 315 314 314 313 313 313 313 313 313 312 311 310 310 312
359 358 357 358 356 355 353 342 331 335 341 343 340 336 332 329 326 324 324 322 321 320 319 319 320 321 320 320 319 320 323 326 324 320 317 314 315 315 312 312 312 312 315 318 322 318 314 317 319 316 316 317 317 316 316 318 319 317 316 315 314 315 314 313 313 313 313 313 313 312 311 310 310 312
355 355 352 355 356 355 353 329 326 330 340 342 337 332 328 325 323 322 324 324 322 320 320 320 320 320 320 321 321 322 323 324 322 321 315 313 314 313 312 310 311 313 316 317 319 319 315 317 319 317 316 317 316 316 316 318 319 316 314 313 314 315 314 313 313 313 312 312 312 312 311 309 312 321
355 356 353 350 351 352 344 320 323 327 340 338 333 330 328 326 325 324 325 323 322 323 323 323 323 323 323 325 325 324 324 324 323 321 318 317 315 312 312 312 311 310 313 317 323 318 314 316 316 319 315 313 313 315 317 318 319 319 321 319 319 313 316 315 314 312 311 312 312 311 311 309 313 318
352 353 351 345 335 327 318 317 317 320 324 334 332 329 327 324 321 324 326 327 326 325 325 325 325 323 322 321 322 321 320 320 321 321 321 320 319 316 314 314 316 315 312 316 321 320 317 320 313 317 316 314 310 312 316 317 318 319 319 319 318 316 317 314 313 311 312 312 311 311 310 310 311 316
347 347 350 345 323 313 314 315 314 314 319 326 329 328 325 324 324 325 324 325 326 324 324 323 321 320 319 318 317 316 316 315 316 316 316 317 316 317 315 313 312 312 313 316 318 320 314 315 313 314 313 315 313 312 313 316 318 317 319 319 317 317 320 318 317 319 310 309 308 308 309 310 310 313
345 344 337 329 318 313 313 312 310 311 314 319 327 323 314 315 319 323 324 323 322 320 319 318 317 316 315 313 313 314 314 313 314 313 314 314 316 320 320 318 314 310 309 316 317 318 315 314 314 314 314 311 311 315 313 312 315 316 319 319 318 318 319 318 316 317 318 318 318 314 315 310 312 310
343 337 328 324 316 310 307 306 308 310 312 318 316 310 312 315 319 322 321 321 319 318 317 317 316 315 314 313 313 313 313 314 317 315 316 316 316 317 318 318 317 314 314 317 318 318 318 315 319 316 313 313 310 311 313 312 312 317 316 315 317 318 319 317 315 315 315 315 317 311 309 309 311 312
336 328 323 319 308 305 304 306 308 310 315 315 308 311 313 316 320 321 320 318 319 319 317 316 315 314 314 314 314 314 315 315 318 317 318 319 319 318 316 317 317 317 318 318 319 319 318 316 316 318 318 315 313 312 310 312 313 313 313 315 315 315 316 316 315 315 316 317 316 316 316 314 316 320
335 322 313 307 305 305 305 306 309 310 311 309 310 311 315 321 318 318 318 318 317 317 316 315 315 314 315 315 316 317 318 318 317 317 315 315 316 317 318 317 317 317 314 316 318 319 319 316 316 318 318 315 312 313 312 309 312 311 312 313 312 312 314 315 315 314 315 315 314 315 315 314 314 314
309 306 306 306 307 309 312 316 315 315 314 314 316 317 320 319 318 318 317 317 316 315 315 315 314 314 315 315 318 319 318 316 314 314 314 313 313 314 314 313 314 315 315 316 316 317 318 318 317 318 315 315 314 314 314 312 312 312 313 312 312 314 314 314 314 314 315 314 315 315 315 315 314 314
315 314 315 314 313 313 315 317 317 317 318 320 320 320 319 319 317 318 317 317 316 317 315 315 315 315 316 317 316 315 314 313 314 316 315 314 313 314 313 313 312 313 315 317 317 318 318 318 319 318 315 314 314 315 316 315 312 311 312 313 312 308 311 315 315 314 315 316 315 314 315 314 313 314
318 317 317 315 318 316 316 316 316 317 318 318 318 317 319 320 320 320 320 319 319 318 318 317 317 316 316 314 313 313 312 312 313 316 315 314 313 313 314 312 310 311 312 312 312 316 318 319 318 318 318 317 315 316 316 314 312 312 312 312 312 312 314 312 313 314 317 318 314 314 313 313 312 313
317 317 316 316 316 315 314 314 313 314 314 315 316 313 315 315 316 317 316 316 316 317 317 316 315 314 313 313 313 312 312 313 313 317 315 316 314 315 315 311 310 310 310 311 313 315 317 317 320 318 318 317 318 318 315 311 313 314 312 312 313 312 312 314 314 315 319 315 313 313 312 313 313 313
319 319 317 317 316 313 313 313 313 314 314 313 314 314 315 315 316 317 317 318 317 317 316 315 313 313 313 312 312 313 312 313 313 313 314 314 315 313 312 311 312 312 311 310 312 312 314 316 317 316 317 316 315 317 316 315 311 313 313 313 312 312 313 315 315 316 317 313 311 311 310 310 312 312
320 319 317 317 316 315 314 314 315 315 316 315 313 313 314 315 315 316 316 315 315 315 314 313 313 313 313 312 313 313 311 311 310 310 312 313 313 312 311 310 310 311 312 311 312 313 313 313 314 313 313 314 314 315 313 316 315 314 314 313 312 312 313 314 313 315 315 313 312 311 310 310 310 311
320 321 319 318 317 317 316 317 317 317 315 314 314 314 313 313 314 314 314 315 314 313 312 312 312 312 312 312 312 312 311 310 309 310 310 310 311 311 311 312 312 312 312 312 312 313 314 312 313 311 310 310 310 310 308 310 313 315 312 311 312 313 313 314 315 314 312 311 312 310 307 308 309 311
319 319 319 318 318 318 316 316 316 315 314 314 314 313 312 311 312 313 315 316 314 313 312 312 311 312 312 311 312 311 310 310 309 309 310 310 311 311 311 311 312 312 312 313 313 313 315 312 312 311 309 309 308 308 309 312 310 311 316 312 312 312 313 312 312 311 311 312 312 310 309 309 308 310
321 320 319 318 318 318 318 317 316 315 314 313 313 313 314 314 314 316 317 315 313 312 312 311 311 311 310 311 310 310 310 311 311 310 311 311 311 311 311 310 310 311 311 312 313 313 314 313 312 311 310 308 307 307 308 311 314 311 311 312 311 312 312 312 310 308 309 311 310 311 311 309 309 310
323 322 320 320 319 319 319 318 317 316 316 315 315 315 316 316 317 316 314 312 313 312 311 311 311 311 312 312 312 311 310 311 310 311 311 311 311 312 311 311 310 311 311 310 311 311 311 312 312 311 311 310 308 308 309 308 309 314 311 307 311 310 312 310 309 309 310 309 310 312 313 314 311 312
324 323 321 320 320 320 320 320 319 319 318 318 318 319 318 317 316 314 312 313 313 313 313 312 313 312 313 312 312 312 312 312 312 311 311 311 311 312 311 311 310 310 310 309 309 310 310 311 313 312 312 312 312 313 311 311 311 313 316 311 306 310 311 310 310 309 309 310 311 310 309 310 308 313
324 323 322 322 322 321 320 320 320 320 319 319 320 319 318 317 315 313 314 315 315 314 313 314 313 313 313 312 313 312 312 311 312 311 311 311 310 311 310 311 311 310 310 309 310 310 310 314 313 310 312 316 316 314 312 310 309 310 310 312 306 307 308 311 313 311 310 311 310 308 307 307 307 308
324 323 323 323 322 323 321 321 320 319 320 318 317 316 318 317 315 314 314 316 316 316 315 314 313 313 313 313 312 311 311 311 311 310 311 310 309 309 308 310 310 309 310 309 309 311 314 315 312 312 311 313 313 309 307 308 306 308 310 310 313 309 307 306 307 309 314 311 308 306 306 307 308 307
325 324 323 323 323 322 321 320 320 318 317 317 316 317 317 316 315 314 315 316 316 315 315 314 314 313 313 313 312 313 312 311 311 311 310 311 310 309 308 307 310 310 310 311 312 314 313 313 313 311 313 312 312 309 307 308 308 307 308 309 311 312 313 307 305 304 306 306 307 309 309 306 305 303
326 325 323 323 321 321 321 320 319 319 319 318 317 317 315 315 316 315 316 315 315 314 315 314 313 313 313 313 312 313 312 311 312 312 311 311 312 310 308 308 310 311 310 311 311 310 311 311 312 312 310 310 310 308 309 307 307 308 308 309 309 310 310 313 313 308 308 307 306 306 303 306 308 308
326 325 322 321 321 321 321 321 320 320 319 318 318 315 314 316 316 314 316 316 315 315 315 315 314 313 313 312 312 311 312 313 313 312 312 311 310 310 311 310 309 309 309 310 309 310 311 311 312 312 311 311 310 309 309 308 307 308 308 308 308 309 309 310 309 309 310 311 309 307 308 308 309 307
Wind_Speed
7 6 6 5 5 5 4 5 4 3 3 4 4 3 4 2 4 4 4 3 4 1 2 3 1 3 6 6 5 5 6 7 8 9 9 10 10 13 15 15 15 16 16 15 16 16 15 15 15 16 16 16 16 16 17 17 17 17 17 18 18 18 18 17 16 16 16 16 16 16 16 16 17 18
5 5 6 5 5 5 5 5 5 3 2 4 4 4 3 1 3 4 5 5 3 2 3 3 4 5 6 7 8 6 8 8 9 10 11 10 11 16 16 16 16 15 15 15 15 15 15 15 16 16 17 16 16 17 17 17 17 17 17 18 18 18 18 17 16 16 16 16 16 16 16 17 17 17
5 5 6 6 6 6 6 6 5 4 4 4 4 3 2 3 3 4 5 5 1 3 3 5 7 8 9 8 9 8 8 9 11 11 11 11 15 16 15 17 16 15 15 14 15 15 15 15 16 16 16 16 17 17 17 17 17 17 17 18 18 18 17 17 17 16 16 16 16 17 17 17 17 17
5 6 7 6 6 5 5 6 5 5 4 4 4 3 2 3 4 3 4 4 3 3 3 5 7 10 9 9 11 9 9 10 13 10 9 10 11 10 10 16 16 15 14 15 15 14 15 15 16 16 17 17 17 18 18 18 18 17 17 18 17 17 17 17 17 16 16 16 16 16 17 17 17 17
6 6 6 6 6 5 6 5 5 5 4 4 4 2 3 4 3 3 3 4 2 2 3 4 6 6 7 7 8 10 9 9 9 8 8 8 8 8 8 9 15 14 15 15 15 15 15 16 16 17 17 17 17 18 18 18 17 17 16 16 16 16 16 17 16 16 16 16 16 16 17 17 17 17
6 6 6 6 6 6 6 6 6 5 5 5 4 2 3 3 2 2 3 3 4 2 3 4 4 5 7 9 7 9 11 9 9 9 8 7 8 7 7 8 9 14 15 15 16 16 16 17 17 17 17 17 17 18 18 17 17 16 16 16 15 15 16 16 16 16 16 16 17 17 17 17 18 18
6 7 7 6 6 5 6 6 6 5 5 5 4 3 3 3 3 2 2 2 3 3 5 5 5 5 6 8 9 9 8 8 8 9 8 7 7 7 8 8 8 12 15 17 17 16 16 17 17 18 18 18 18 18 17 16 15 16 16 15 15 16 16 16 16 17 17 17 17 18 18 18 19 18
8 7 7 7 7 6 6 6 5 5 5 5 4 4 3 3 3 2 3 2 1 3 5 6 6 6 7 8 9 8 9 9 8 7 7 8 8 9 9 9 9 12 17 17 16 16 16 16 17 17 17 17 17 16 15 15 14 14 15 15 15 15 15 15 16 17 17 17 17 17 17 17 17 18
8 8 8 8 7 6 7 6 6 5 5 4 5 4 3 3 3 2 2 2 2 4 6 7 5 5 5 7 9 10 9 7 6 4 8 7 7 9 9 9 10 16 18 16 16 15 16 16 17 16 16 16 16 15 15 15 15 14 14 14 14 15 15 14 14 15 16 16 16 16 16 16 16 16
10 9 9 8 8 7 7 6 5 4 5 5 5 4 3 3 2 3 3 3 2 4 7 8 8 6 6 7 6 7 7 8 9 6 5 6 7 7 6 7 6 5 6 8 11 14 14 14 13 15 16 15 16 16 15 15 15 14 13 13 14 14 14 13 13 13 13 14 15 15 15 15 15 15
10 9 8 8 7 6 7 7 6 6 6 6 6 5 4 4 4 4 3 3 4 7 7 7 7 7 6 6 7 7 7 6 7 8 8 7 6 5 5 5 5 5 8 14 15 12 11 12 11 11 11 13 16 16 16 15 15 14 12 12 13 13 13 13 12 13 12 12 12 12 13 14 15 15
7 7 7 7 7 7 8 8 8 7 7 6 7 5 5 5 5 5 4 4 4 6 7 7 7 6 7 6 6 8 9 7 6 5 6 7 7 6 4 4 4 5 6 7 8 11 13 14 15 16 15 12 10 11 15 16 14 14 12 12 12 13 13 12 12 11 11 11 11 11 12 13 13 14
6 6 6 6 7 8 7 6 5 5 3 6 6 5 6 5 5 6 5 4 7 7 7 7 7 7 7 6 7 8 9 9 8 6 6 6 6 7 6 5 4 2 3 3 3 2 1 3 4 5 6 7 10 12 11 11 14 13 12 12 12 12 12 12 11 11 10 10 10 10 11 11 12 13
6 6 6 6 8 8 8 8 7 3 1 4 4 4 7 5 5 6 6 5 6 6 7 8 9 8 9 7 7 7 7 6 6 6 6 7 7 7 6 4 3 2 2 3 3 3 2 3 4 4 6 7 8 8 8 9 9 11 12 12 13 12 12 11 11 10 10 10 10 9 10 10 11 12
5 5 6 7 9 9 10 10 10 3 5 5 1 4 5 2 3 7 5 5 7 7 7 8 8 8 8 8 8 7 7 7 7 6 6 7 7 6 5 4 1 2 2 3 3 3 3 3 4 4 5 7 8 8 8 9 10 11 11 12 12 12 11 11 10 10 11 11 10 10 10 10 11 12
7 7 7 7 8 9 10 8 7 6 5 4 4 4 4 5 8 7 1 7 8 8 8 9 8 7 8 8 7 7 7 7 7 6 6 7 6 6 5 4 4 2 2 3 2 3 2 2 4 4 5 6 7 8 7 9 10 10 11 11 11 11 11 11 11 11 11 11 11 11 9 9 9 10
8 9 8 8 9 7 9 9 9 8 6 7 7 9 10 10 8 7 9 9 2 7 5 6 6 8 8 9 7 8 8 7 8 7 6 5 5 4 5 4 5 4 1 3 3 3 3 3 4 4 4 5 6 7 9 10 10 9 10 11 11 11 11 11 12 12 12 12 11 10 10 8 7 7
10 10 9 9 10 9 10 10 10 9 8 7 7 6 5 4 6 7 6 4 5 3 5 5 7 6 7 7 8 8 9 9 8 7 7 6 6 5 5 5 5 4 2 3 3 3 4 3 3 4 4 5 6 7 7 8 8 8 8 9 9 10 11 12 12 12 12 12 11 13 13 10 7 5
11 11 10 11 10 10 11 10 12 10 9 9 8 7 7 7 7 6 3 2 3 1 2 3 6 7 7 8 9 8 8 8 7 6 7 7 7 7 7 5 4 4 2 3 4 3 3 3 3 3 3 3 5 6 8 6 5 5 7 7 7 8 9 11 11 11 11 11 12 13 14 13 12 7
10 10 10 11 12 11 12 12 15 14 12 11 11 10 9 8 8 8 8 10 11 9 5 5 6 6 8 8 8 8 9 9 9 10 9 8 7 7 6 5 5 4 4 3 3 3 4 2 3 3 3 3 3 3 5 6 3 2 5 6 5 5 8 9 9 10 11 12 12 12 13 14 14 10
8 9 10 12 11 12 12 12 14 13 13 13 12 11 10 9 8 8 8 13 15 16 17 18 18 17 16 15 14 12 10 9 9 8 7 6 6 5 5 5 5 5 5 5 4 3 4 3 4 4 4 3 3 3 2 4 8 6 5 6 5 5 6 8 9 9 9 11 11 13 15 15 17 17
10 11 13 12 13 13 12 14 14 17 15 13 13 12 12 11 10 9 8 8 11 17 18 18 18 17 16 16 15 14 11 7 5 5 6 7 5 5 5 5 5 5 4 3 0 3 4 4 3 4 4 4 2 2 2 2 5 11 7 8 8 4 6 5 8 9 10 11 12 14 16 18 18 7
10 9 9 12 10 10 7 17 17 19 14 12 13 12 12 11 11 9 9 10 10 9 10 10 12 11 12 10 9 10 12 10 7 4 5 5 4 4 4 4 5 5 4 4 1 1 4 4 3 2 4 3 3 1 2 2 3 4 3 3 5 2 7 6 8 9 8 9 9 11 14 18 16 8
9 8 8 11 15 13 17 14 10 9 9 9 10 11 10 12 12 10 10 9 9 10 10 9 9 9 8 8 7 7 7 7 6 4 2 2 2 3 4 5 4 2 5 4 2 2 2 1 3 2 3 2 4 3 2 3 3 4 4 3 5 2 9 10 7 10 8 5 4 6 9 12 15 10
13 12 11 6 9 16 18 17 16 14 13 11 7 7 9 11 13 13 11 12 14 10 9 9 9 8 7 7 6 6 6 5 5 4 4 3 2 1 1 2 3 5 4 4 6 1 3 2 3 2 2 1 4 4 3 2 2 3 3 4 5 5 4 3 3 5 8 8 8 4 4 4 9 11
9 9 7 5 13 20 19 17 16 16 13 12 8 11 17 18 17 11 10 9 9 9 8 7 8 8 7 7 7 6 5 5 5 5 6 6 6 5 4 3 3 5 5 3 5 1 3 3 3 4 3 2 4 3 4 4 2 3 3 3 4 5 4 4 3 5 4 5 4 2 2 5 4 3
8 8 9 9 18 20 20 18 17 17 18 14 13 17 18 18 18 14 8 8 7 8 9 8 8 7 7 7 7 6 6 5 5 6 6 6 6 6 6 6 6 6 6 4 2 3 2 4 1 2 3 3 4 4 2 3 4 1 3 3 4 4 4 3 5 5 5 4 4 9 7 8 3 4
11 11 12 15 22 21 21 21 19 19 15 14 18 19 18 19 15 11 10 8 7 8 9 8 8 7 7 7 7 6 6 6 5 6 6 6 6 6 6 7 7 6 6 5 4 4 4 4 4 4 2 1 2 3 4 3 3 3 1 4 5 4 3 3 4 4 4 4 6 6 8 7 3 4
9 9 15 20 22 23 22 22 22 20 20 22 18 18 16 15 10 11 10 10 9 8 8 8 8 7 7 7 7 7 7 7 6 5 5 6 6 6 6 6 5 5 5 5 5 3 3 4 5 4 3 2 3 3 3 4 3 4 4 4 4 4 4 4 4 4 3 3 5 6 6 7 7 7
22 23 22 19 17 14 11 10 10 11 12 17 16 18 13 5 8 9 10 10 10 9 8 8 8 8 7 7 7 7 7 5 5 5 5 6 6 6 6 6 5 5 6 6 6 5 5 5 4 3 4 4 3 3 2 2 2 3 1 3 2 6 1 3 4 4 4 4 5 6 5 5 6 7
15 18 17 14 17 17 20 19 17 15 15 13 10 6 3 3 6 9 8 9 10 9 9 9 8 8 8 8 8 6 5 5 5 4 5 5 5 5 5 6 6 6 5 6 5 5 5 5 3 3 4 4 4 3 2 1 2 1 2 2 2 3 3 2 3 4 4 5 3 4 5 5 6 6
16 16 17 16 13 15 14 12 9 8 7 8 8 5 2 2 4 9 13 11 8 8 8 8 9 8 9 8 7 7 6 5 5 4 4 4 5 5 5 5 6 6 6 6 6 5 4 4 3 3 4 3 2 2 2 1 1 2 2 1 2 3 1 3 4 4 4 5 5 3 2 3 5 6
15 15 14 14 13 11 12 12 10 8 8 8 8 9 8 8 8 9 10 10 9 8 8 9 9 9 8 8 7 7 6 5 5 3 4 3 4 4 4 5 6 6 6 6 5 5 5 5 4 4 3 3 3 5 5 2 1 1 1 1 2 2 3 3 3 4 4 3 5 4 1 2 4 5
12 12 12 10 8 10 10 11 11 11 9 9 8 8 10 10 10 9 9 9 9 8 8 8 8 8 8 7 7 6 6 5 5 4 4 4 4 4 5 5 5 4 5 6 6 6 5 5 4 4 3 2 3 3 5 4 1 1 1 2 2 2 2 4 2 3 4 3 4 5 4 3 4 4
16 16 15 14 8 7 9 10 11 11 10 9 9 9 9 9 9 9 8 9 9 9 8 8 7 7 7 7 7 6 6 6 6 6 5 5 4 4 5 5 6 5 5 5 5 5 5 5 4 5 3 4 3 4 5 5 5 1 1 1 2 3 3 4 4 3 3 3 4 5 5 4 4 5
13 12 13 14 12 9 9 8 9 9 9 9 9 9 8 8 8 8 9 9 9 9 8 8 7 7 7 6 6 6 6 6 6 6 6 5 5 5 4 5 5 5 5 5 5 5 5 5 5 5 4 6 6 6 5 2 4 5 4 1 2 2 3 2 3 3 4 5 3 4 5 5 5 4
13 12 12 13 12 12 12 10 8 7 8 8 9 8 7 7 7 7 8 8 8 8 8 8 8 7 7 6 6 6 7 6 6 6 6 5 5 5 5 6 5 4 5 4 4 4 3 4 3 3 3 3 3 0 5 6 1 6 4 4 2 3 3 3 2 2 3 3 4 4 4 4 4 4
12 12 12 12 13 11 10 9 9 8 8 8 8 8 8 8 8 8 8 7 7 7 8 7 7 7 7 7 7 7 7 7 7 6 6 6 6 6 5 6 6 5 5 5 4 4 3 2 3 2 4 3 2 2 3 6 6 4 1 3 4 4 0 2 4 3 3 2 3 4 5 4 3 4
11 11 11 11 11 10 11 11 10 10 10 10 9 9 9 9 9 10 9 8 8 8 8 7 8 7 8 8 7 8 8 7 7 7 6 6 5 5 5 5 5 5 5 5 4 4 3 3 2 2 2 2 1 3 3 2 1 5 3 3 3 5 4 4 4 4 3 4 4 4 3 2 4 4
10 9 9 10 10 10 10 10 9 10 10 10 9 8 9 9 10 10 10 9 9 9 8 8 8 8 7 7 7 8 7 8 7 6 6 6 6 5 5 5 4 5 4 5 5 4 3 3 3 1 1 2 3 2 2 2 1 2 6 3 1 2 3 5 5 4 6 4 6 6 5 4 2 6
9 10 10 10 10 10 10 10 9 10 10 9 9 9 9 9 10 10 10 10 9 9 8 8 8 8 7 8 8 7 7 7 6 6 6 6 6 5 4 4 4 4 4 4 4 3 4 3 8 6 3 2 1 1 3 5 4 2 2 6 3 4 6 2 3 5 5 6 6 7 6 6 5 5
8 9 9 9 9 9 9 9 9 9 9 9 8 9 8 9 9 11 10 11 9 9 8 8 8 8 7 7 7 7 7 7 6 7 7 7 7 5 5 5 4 5 4 4 4 3 4 5 3 2 3 4 3 4 4 2 3 1 2 0 7 6 9 7 5 5 4 4 4 6 6 5 5 6
8 8 9 9 8 9 9 9 8 8 8 8 8 8 8 9 9 10 9 10 9 9 8 8 8 8 7 7 7 6 7 7 7 7 7 6 6 6 6 6 4 5 4 3 4 3 4 4 3 4 4 4 3 2 5 1 2 2 3 5 6 7 7 9 7 3 0 1 5 4 3 5 6 6
8 9 9 9 9 8 8 9 8 8 8 8 9 9 9 9 10 10 9 10 10 9 8 8 8 8 7 7 7 6 6 7 6 6 6 6 5 5 6 6 5 5 5 4 4 4 4 5 5 5 5 5 4 5 4 2 7 3 2 3 2 4 5 6 6 6 5 5 5 5 4 2 3 5
8 9 9 9 9 9 9 9 8 8 9 9 9 9 9 9 9 10 9 10 10 9 9 8 8 7 7 7 7 7 6 6 6 6 6 6 5 5 5 6 6 5 5 5 5 5 5 5 5 4 4 2 2 3 3 3 5 3 4 3 6 3 4 3 5 7 7 5 8 11 10 9 8 9
Wind_Direction
268 254 243 256 260 267 270 272 274 280 308 289 289 283 283 300 290 296 300 288 308 101 61 128 26 73 51 34 12 92 113 121 120 108 103 96 90 67 67 65 69 72 73 73 72 70 66 64 62 59 58 55 53 52 51 50 48 47 47 46 43 41 39 40 42 44 44 45 46 47 49 48 47 48
267 267 258 246 252 257 255 257 262 254 230 264 265 267 263 256 272 296 292 303 322 300 112 67 116 50 62 65 55 86 101 92 101 100 97 92 87 74 69 64 61 60 64 69 72 71 68 66 64 62 59 56 55 53 52 49 47 46 45 44 42 39 37 38 40 42 42 42 44 45 46 46 45 44
263 264 260 256 259 263 271 274 265 255 232 250 262 273 293 279 277 275 281 288 336 14 333 66 54 90 70 78 90 90 91 92 91 93 92 92 86 79 68 67 64 62 61 62 66 69 69 67 66 65 62 60 57 55 52 50 48 46 43 41 39 37 36 36 37 39 40 40 41 42 42 42 42 41
246 254 257 258 258 263 262 262 262 257 250 268 271 267 273 262 267 277 277 280 293 54 22 79 94 86 92 106 115 110 102 91 92 95 99 99 94 84 77 63 62 64 64 62 62 64 69 70 69 66 64 61 58 54 51 48 46 44 42 39 36 34 35 36 36 37 38 38 38 39 38 38 37 37
248 249 257 262 263 270 271 266 267 265 257 245 249 261 260 265 259 258 260 267 268 100 48 83 102 87 94 105 115 117 115 108 106 111 110 108 97 95 86 76 61 61 63 64 64 64 68 71 70 67 63 60 56 52 49 47 45 43 41 38 36 34 34 35 34 34 35 36 37 37 36 35 36 35
240 250 242 245 255 248 258 275 277 277 274 267 261 200 268 280 267 250 271 273 283 159 126 103 96 106 113 119 132 125 127 124 127 127 121 112 107 99 97 83 68 62 67 69 70 70 71 69 66 65 63 61 59 55 52 48 45 44 41 39 37 37 35 35 35 34 34 35 37 38 37 36 35 34
231 235 235 234 239 245 247 249 257 265 274 285 292 286 263 265 250 238 246 269 265 155 133 132 132 128 123 127 139 138 132 141 140 133 131 117 100 100 91 83 78 70 76 76 75 75 73 71 71 70 67 64 61 57 54 49 45 42 40 39 40 40 38 37 38 37 35 35 39 41 40 38 37 35
231 231 231 232 233 237 237 246 254 252 256 258 252 252 235 245 262 239 232 203 268 161 156 151 135 140 134 133 135 141 144 149 144 145 134 122 130 120 109 104 98 88 83 81 80 80 77 77 76 74 71 68 63 58 52 48 45 43 42 39 41 41 40 39 40 40 38 37 37 38 39 38 37 37
229 228 230 228 228 224 239 233 238 243 242 251 255 250 226 228 216 211 225 210 197 177 151 139 136 141 139 143 140 152 155 132 103 135 146 136 131 119 113 110 108 108 104 95 90 82 83 82 80 76 73 69 65 61 56 51 47 45 44 43 41 42 42 41 41 41 40 39 36 36 37 37 36 37
225 228 225 222 223 226 229 236 231 229 239 248 249 246 243 244 236 225 207 230 218 144 144 147 144 153 138 158 153 152 149 147 145 146 136 132 128 131 133 131 148 146 120 141 124 113 97 88 83 80 78 74 68 62 55 51 48 44 44 45 45 45 44 42 41 40 39 40 39 37 36 37 37 37
221 220 217 216 217 215 225 230 227 223 229 235 238 229 236 233 235 228 212 175 154 145 147 152 155 157 153 143 154 166 164 154 151 143 143 141 133 133 125 120 109 104 76 62 65 77 83 95 92 88 89 88 82 70 56 52 48 46 44 46 47 46 46 43 40 42 42 43 42 40 38 37 38 38
220 200 209 214 210 217 220 221 226 223 226 222 224 210 214 229 235 241 212 193 161 154 161 161 164 169 159 161 147 155 168 168 170 168 158 154 150 140 126 94 103 107 126 128 124 123 123 114 114 112 101 88 76 80 80 59 48 48 43 45 45 46 45 43 39 38 38 41 42 42 41 39 38 37
177 173 196 211 220 215 227 213 238 253 254 222 214 206 224 229 230 237 219 212 171 163 166 164 167 159 163 158 157 161 179 183 178 156 180 161 149 142 117 91 78 82 87 97 123 119 59 112 114 86 77 87 87 65 47 75 63 44 41 40 42 42 42 42 40 38 35 35 38 39 41 41 40 38
172 180 192 206 211 202 195 194 206 200 132 338 323 223 212 210 228 233 227 184 179 172 172 174 172 173 181 169 170 167 175 159 131 143 146 141 124 113 102 82 32 15 121 115 113 139 152 113 88 78 82 87 62 57 52 41 40 42 40 40 39 37 37 37 37 37 35 34 34 35 39 42 43 41
163 168 206 210 195 188 194 209 209 192 195 199 159 39 9 10 234 215 200 193 189 182 181 179 185 187 180 170 167 173 160 150 153 150 147 120 113 124 135 126 81 344 109 125 126 95 72 82 93 86 85 65 55 60 56 40 48 44 42 39 38 37 35 36 34 32 30 27 25 29 30 38 44 45
182 197 203 213 213 220 211 201 189 197 165 160 125 115 104 76 48 20 170 175 186 191 191 177 199 185 165 156 167 160 152 153 148 137 122 125 142 152 139 145 144 138 232 152 138 115 122 128 118 112 94 86 69 65 52 50 46 46 39 38 37 36 34 29 28 28 27 25 22 19 18 20 32 46
190 201 208 211 219 216 194 175 187 183 148 99 90 81 77 63 58 47 44 35 353 201 197 187 165 188 165 160 160 157 149 149 139 132 127 129 135 126 124 132 135 140 174 161 160 145 141 154 131 100 77 79 81 89 66 47 46 40 40 37 37 34 31 28 26 23 21 20 17 14 10 12 20 28
197 201 207 211 214 210 187 190 177 163 164 166 157 155 156 131 95 81 56 35 13 349 210 178 168 160 148 150 144 139 146 147 138 134 127 129 122 119 117 124 123 127 199 171 157 158 162 143 109 106 111 115 100 80 66 51 43 36 36 38 35 36 33 31 27 23 17 15 11 10 6 0 359 19
208 205 208 208 207 194 192 189 177 172 173 174 170 157 149 132 96 63 70 110 205 111 151 148 138 147 137 123 121 122 120 113 110 116 118 118 114 115 123 123 142 142 173 186 217 146 124 131 124 114 122 104 99 99 97 73 52 41 47 46 42 36 38 36 32 25 19 14 11 7 2 350 339 352
209 211 210 214 205 191 197 180 172 181 179 173 164 153 131 109 91 75 54 45 48 50 64 103 133 125 88 97 113 116 116 111 111 110 113 115 127 135 145 146 159 160 154 214 230 172 152 166 125 117 89 107 102 116 109 129 103 67 77 79 66 50 46 47 38 27 21 15 8 2 358 349 332 323
212 217 221 214 210 194 199 163 165 156 159 169 158 141 129 115 109 102 80 65 69 76 76 78 80 84 84 83 83 83 94 111 124 126 126 139 145 149 148 149 162 150 166 198 205 179 149 145 147 130 98 45 76 67 60 126 158 192 155 117 104 78 63 54 51 39 27 20 10 4 357 348 338 312
200 210 213 211 213 203 198 149 161 159 166 157 146 137 127 122 116 113 110 101 85 81 82 82 83 84 86 84 79 74 68 80 130 144 142 143 155 160 164 158 150 139 160 128 342 212 143 154 147 143 131 143 92 108 83 356 153 173 181 122 94 103 104 74 73 50 35 26 16 7 360 357 336 333
213 206 182 202 215 211 160 153 170 172 168 146 139 136 132 127 122 119 122 114 112 108 104 100 98 92 91 92 96 87 77 79 81 87 111 147 171 177 162 137 134 155 153 108 273 217 138 178 146 200 179 150 84 62 93 76 43 40 41 149 112 129 155 141 102 77 49 31 19 14 4 6 348 22
211 192 181 188 195 174 147 143 116 91 94 125 138 138 140 133 126 131 121 117 115 110 104 101 95 93 91 96 100 97 85 74 76 98 146 164 181 161 157 179 217 109 111 119 307 255 113 171 133 221 302 285 126 106 89 76 64 48 23 32 48 107 139 151 118 116 125 100 42 27 15 15 7 23
205 198 197 152 138 125 131 138 143 136 134 126 135 131 131 131 129 130 120 116 111 107 107 107 107 105 103 98 93 95 99 104 102 90 66 67 56 54 140 129 118 101 88 81 332 269 140 149 118 156 150 125 118 122 86 85 68 66 44 31 41 36 34 62 80 123 146 137 132 154 71 29 26 25
192 183 156 139 136 134 138 139 136 135 123 113 108 118 114 115 121 121 116 115 114 114 114 115 115 120 122 119 115 111 113 112 104 89 75 59 60 50 46 21 102 119 112 92 303 122 134 129 132 138 150 146 112 128 136 105 76 93 56 44 47 41 16 48 48 39 35 26 66 56 127 184 130 54
162 143 148 142 141 137 134 128 122 122 119 110 116 118 121 122 117 111 103 109 114 120 120 119 121 124 128 129 126 119 113 105 96 92 85 90 86 80 71 62 76 94 103 114 122 121 123 96 64 104 102 90 107 106 70 70 75 194 136 66 50 52 38 40 32 27 25 30 37 170 200 214 166 84
157 157 158 160 151 142 136 131 125 119 118 125 128 128 127 125 122 118 112 115 115 118 118 118 128 136 137 132 130 131 127 114 105 102 106 100 99 99 100 93 89 98 117 119 108 91 93 105 96 69 61 73 78 76 101 116 96 29 10 120 68 28 60 25 53 23 19 35 20 35 29 38 81 156
174 159 150 147 147 145 138 129 126 125 126 130 134 126 132 133 131 129 129 128 129 122 123 130 134 133 132 130 124 121 118 117 119 114 96 95 96 98 94 99 118 137 127 107 98 81 80 93 98 92 73 74 95 77 52 61 25 66 2 311 97 32 9 29 29 24 6 11 30 19 24 31 19 22
91 89 85 79 70 69 90 110 117 124 126 128 123 127 132 141 137 131 129 133 132 133 133 136 139 132 127 126 124 124 128 132 124 124 135 140 139 137 136 134 121 106 103 107 104 101 100 94 82 87 96 73 60 84 43 73 96 85 22 352 347 142 34 37 28 32 350 4 27 26 19 29 37 3
92 101 106 104 101 94 83 87 93 97 109 111 111 94 91 184 143 129 130 134 135 138 140 142 141 140 133 125 129 136 136 131 139 151 159 153 132 130 122 127 125 108 91 87 84 76 78 77 80 94 91 84 80 55 43 328 73 54 76 65 355 34 356 22 63 50 355 347 23 54 360 1 15 24
111 108 103 101 101 100 98 102 113 122 117 107 98 103 147 197 149 134 132 133 130 135 138 137 135 130 133 143 143 145 151 150 156 168 157 131 129 130 142 138 126 130 133 126 112 105 103 93 85 64 53 40 88 126 151 40 23 42 87 54 309 62 354 21 16 39 20 335 354 64 59 355 10 11
118 123 130 142 145 144 133 128 123 127 124 118 126 151 170 172 166 157 150 143 138 133 133 134 139 141 150 146 152 154 151 151 150 141 125 132 134 146 158 140 139 143 143 133 123 121 112 107 78 73 72 54 26 349 320 136 79 20 29 46 321 55 351 52 39 29 339 15 340 353 154 360 22 21
134 133 126 115 115 131 135 139 139 141 141 140 159 178 179 178 170 155 139 132 132 134 136 139 145 152 153 152 158 158 148 146 144 138 139 138 145 154 151 141 134 130 137 142 142 133 128 123 128 124 104 78 56 19 344 330 72 12 12 32 346 32 42 346 35 52 351 357 10 339 351 13 38 41
135 140 139 136 121 120 132 139 139 139 142 156 173 176 177 173 155 141 134 131 133 139 142 149 150 153 159 157 161 156 153 151 145 150 158 149 163 167 152 143 145 155 150 144 139 137 138 147 155 141 157 164 165 134 42 359 323 312 232 102 19 5 8 22 338 33 319 358 29 329 335 359 16 43
128 132 135 137 136 138 141 142 139 142 152 164 172 171 169 153 146 141 136 137 141 143 149 152 152 159 159 160 161 157 153 154 154 156 157 163 168 161 160 144 147 151 146 139 141 152 164 156 181 188 201 183 207 175 159 56 6 328 323 31 86 18 2 332 348 331 356 359 2 325 348 343 9 7
129 133 137 142 146 149 144 142 145 154 163 165 166 168 156 145 139 135 129 135 142 148 152 153 157 160 160 161 157 156 154 164 155 159 162 166 168 165 150 148 148 145 146 132 135 145 172 171 199 231 242 219 248 290 112 147 47 325 347 325 338 38 357 325 282 317 354 328 337 331 329 326 355 17
135 142 147 152 156 153 147 154 162 166 165 166 165 160 152 144 134 122 131 138 136 144 146 156 156 162 161 160 162 160 166 168 162 168 167 168 171 172 166 154 157 164 143 146 151 147 178 165 196 230 261 273 245 198 164 149 162 153 90 332 352 317 350 317 308 339 312 324 339 335 295 314 332 337
150 155 157 156 157 162 165 164 165 167 170 169 168 164 156 149 143 143 147 146 149 149 158 162 164 167 163 168 169 166 172 167 171 171 169 170 173 166 162 160 156 149 156 152 159 152 161 187 183 196 244 267 305 42 20 354 329 119 130 314 359 325 347 333 318 309 321 340 338 301 276 254 204 172
157 155 152 154 160 164 167 164 167 165 165 167 163 161 155 153 153 157 159 156 159 164 167 168 163 164 171 170 171 171 171 170 172 167 169 165 165 167 166 162 163 150 178 157 160 161 176 171 167 196 103 60 41 12 6 357 2 208 156 141 34 34 8 328 326 331 316 7 318 302 317 319 318 180
154 157 158 161 163 166 168 170 170 168 169 170 167 162 164 158 162 164 166 163 164 171 172 164 164 178 173 171 178 171 165 168 168 166 166 161 159 177 139 158 158 168 180 161 171 164 179 97 70 55 10 307 99 229 234 234 230 206 161 150 206 196 139 199 314 327 330 328 314 312 329 324 346 308
157 158 157 160 162 164 166 168 169 169 167 166 165 163 158 159 168 160 163 163 170 177 173 164 169 181 168 176 171 171 164 167 166 167 168 164 160 150 137 193 167 171 190 179 176 180 106 99 130 173 218 230 225 247 253 244 280 213 50 235 153 181 181 168 184 225 283 321 332 327 331 319 342 294
163 158 160 161 160 165 164 163 166 166 162 163 162 160 161 165 160 165 173 169 177 181 178 168 175 177 169 172 171 169 165 168 168 167 168 167 164 164 167 187 191 169 195 182 166 131 131 162 177 209 219 242 236 251 263 342 260 280 240 241 164 167 175 179 184 149 70 349 323 340 340 327 318 322
165 163 162 162 164 162 163 161 164 162 162 161 156 164 170 168 165 173 176 172 179 184 182 173 175 173 169 170 164 172 172 171 167 168 169 170 168 171 168 177 189 182 185 183 166 179 179 179 195 213 215 211 202 227 267 209 240 201 259 317 333 285 245 196 182 173 197 203 211 199 184 206 271 307
169 168 163 164 166 163 164 163 163 163 164 161 163 171 170 172 171 177 180 176 183 185 181 175 175 172 169 168 170 174 173 161 168 165 172 167 174 172 181 172 173 188 192 185 184 185 182 196 189 200 241 239 207 244 254 257 316 333 256 216 260 252 282 210 206 201 208 204 186 210 204 174 205 221